Regional Weather Roundup
Issued by NWS Portland, ME

Current Version | Previous Version | Text Only | Print | Product List | Glossary Off
Versions: 1 2 3 4 5 6 7 8 9 10 11 12 13 14 15 16 17 18 19 20 21 22 23 24 25 26 27 28 29 30 31 32 33 34 35 36 37 38 39 40 41 42 43 44 45 46 47 48 49 50
122 ASUS41 KGYX 271905 RWRGYX WEATHER ROUNDUP FOR MAINE AND NEW HAMPSHIRE NATIONAL WEATHER SERVICE GRAY ME 300 PM EDT MON MAR 27 2017 MEZ002-005-006-010-012-015-018-020-021-024-026-027-029-272000- MAINE CITY SKY/WX TMP DP RH WIND PRES REMARKS PORTLAND LGT RAIN 37 35 92 E14 30.12F FOG SANFORD LGT RAIN 36 35 96 NE10 30.09F FOG BAR HARBOR LGT SNOW 32 29 88 E9G16 30.20F FOG WISCASSET LGT RAIN 36 34 92 E7 30.16F FOG ROCKLAND LGT RAIN 34 31 88 E16G23 30.15F FRYEBURG MIX PCPN 34 32 92 N6 30.12F FOG LEWISTONAUBURN LGT RAIN 35 33 92 NE6 30.13F FOG AUGUSTA MIX PCPN 32 29 88 E5 30.16F FOG WATERVILLE LGT RAIN 33 31 92 CALM 30.14F FOG BANGOR LGT SNOW 30 29 96 E9 30.20F VSB 1 GREENVILLE N/A 26 26 100 SE7 30.08F MILLINOCKET LGT SNOW 30 29 96 SE8 30.22F VSB 3/4 HOULTON SNOW 27 24 89 E9 30.22F VSB 1/2 PRESQUE ISLE LGT SNOW 26 23 88 SE7 30.23F FOG FRENCHVILLE SNOW 23 18 81 E13 30.18F VSB 1/2 WCI 11 CARIBOU SNOW 25 21 85 SE10 30.22F VSB 1/2 WCI 15 $$ NHZ002-005-008-009-011-012-014-272000- NEW HAMPSHIRE CITY SKY/WX TMP DP RH WIND PRES REMARKS PORTSMOUTH LGT RAIN 39 38 97 NE9 30.05F FOG ROCHESTER LGT RAIN 38 35 89 VRB5 30.07F FOG NASHUA CLOUDY 40 39 97 N6 30.05F FOG MANCHESTER CLOUDY 40 37 89 NE6 30.04F FOG CONCORD CLOUDY 38 36 92 NE6 30.07F FOG PLYMOUTH CLOUDY 36 34 94 CALM 30.08F BERLIN CLOUDY 35 28 75 S13G18 30.03F WHITEFIELD CLOUDY 39 34 82 N6 30.00F JAFFREY CLOUDY 36 35 96 VRB5 30.03F FOG KEENE CLOUDY 40 35 83 VRB3 30.04F LEBANON CLOUDY 38 35 89 SW3 30.04F MT WASHINGTON FRZ DRZL 28 28 100 SW24 N/A VSB 1/16WCI 14 $$ VTZ005-007-008-272000- VERMONT CITY SKY/WX TMP DP RH WIND PRES REMARKS ST JOHNSBURY N/A 37 36 96 MISG 30.01F MONTPELIER CLOUDY 35 34 96 S7 30.04F BURLINGTON CLOUDY 39 37 92 S10 29.96F $$ MAZ007-012-024-CTZ003-RIZ002-NYZ038-NYZ072-272000- SOUTHERN NEW ENGLAND AND NY CITY SKY/WX TMP DP RH WIND PRES REMARKS BOSTON LGT RAIN 43 42 97 VRB6 30.04F WORCESTER FOG 37 35 92 N6 30.01F VSB 1/2 NANTUCKET FOG 45 43 93 SE16 30.05F VSB 1/2 PROVIDENCE LGT RAIN 46 44 93 E3 30.02F FOG HARTFORD LGT RAIN 39 38 96 N7 30.04F ALBANY CLOUDY 44 38 79 S7 30.00F NEW YORK CITY CLOUDY 47 42 83 E8 30.02F $$ ANZ081-ANZ082-ANZ150-NHZ014-MEZ023>029-272000- COASTAL MARINE OBSERVATIONS STATION/POSITION TIME TEMP WIND PRES WAVE AIR SEA DIR/SP/G HT/PER (UTC) (F) (DEG/KT/KT) (MB) (FT/S) MOUNT DESERT ROC 1900 33 1021.0F MATINICUS ROCK 1800 35 100/ 30/ 33 1020.6F ISLE OF SHOALS 1800 39 60/ 16/ 17 1018.2F JEFFREYS LEDGE 1836 41 N/A 8/ 7 CASHES LEDGE BUO 1750 38 40 1021.5 6/ 6 GEORGES BANK BUO 1750 45 41 1021.8 5/ 5 $$ .............KEY.............. WCI - WIND CHILL TC - TEMPERATURE IN CELSIUS VSB - VISIBILITY IN MILES HX - HEAT INDEX FAIR- INDICATES FEW OR NO CLOUDS BELOW 12,000 FT, WITH NO SIGNIFICANT WEATHER AND/OR OBSTRUCTIONS TO VISIBILITY.

USA.gov is the U.S. government's official web portal to all federal, state and local government web resources and services.